This is the latest recevied weather packets stored in our database for station/object K7SKM. If no packets are shown the sender has not sent any weather packets the latest 10 day(s).
| Time | Temp. | Humidity | Pressure | Rain* | Wind** | Luminosity | Snow |
|---|---|---|---|---|---|---|---|
| 1788404048 | 14.44° C | 88% | 1011.3 hPa | 0 mm | - | 0 W/m² | - |
| 1788403742 | 14.44° C | 88% | 1011.3 hPa | 0 mm | - | 0 W/m² | - |
| 1788403436 | 14.44° C | 88% | 1011 hPa | 0 mm | - | 0 W/m² | - |
| 1788403131 | 14.44° C | 89% | 1011.2 hPa | 0 mm | - | 1 W/m² | - |
| 1788402827 | 14.44° C | 89% | 1011 hPa | 0 mm | - | 3 W/m² | - |
| 1788402522 | 14.44° C | 89% | 1010.9 hPa | 0 mm | - | 5 W/m² | - |
| 1788402221 | 14.44° C | 89% | 1010.9 hPa | 0 mm | - | 8 W/m² | - |
| 1788401920 | 14.44° C | 89% | 1010.8 hPa | 0 mm | - | 10 W/m² | - |
| 1788401616 | 15° C | 89% | 1010.7 hPa | 0 mm | - | 13 W/m² | - |
| 1788401315 | 15° C | 89% | 1010.7 hPa | 0 mm | - | 12 W/m² | - |
| 1788401011 | 15° C | 89% | 1010.5 hPa | 0 mm | - | 13 W/m² | - |
| 1788400706 | 15° C | 88% | 1010.6 hPa | 0 mm | - | 17 W/m² | - |
| 1788400401 | 15° C | 88% | 1010.7 hPa | 0 mm | - | 24 W/m² | - |
| 1788400096 | 15° C | 89% | 1010.6 hPa | 0 mm | - | 28 W/m² | - |
| 1788399796 | 15° C | 88% | 1010.5 hPa | 0 mm | - | 36 W/m² | - |
| 1788399491 | 15° C | 88% | 1010.5 hPa | 0 mm | - | 28 W/m² | - |
| 1788399190 | 15° C | 88% | 1010.6 hPa | 0 mm | - | 38 W/m² | - |
| 1788398889 | 15° C | 88% | 1010.2 hPa | 0 mm | - | 34 W/m² | - |
| 1788398583 | 15° C | 87% | 1010.1 hPa | 0 mm | - | 39 W/m² | - |
| 1788398277 | 15° C | 87% | 1010 hPa | 0 mm | - | 39 W/m² | - |
| 1788397976 | 15° C | 88% | 1010.2 hPa | 0 mm | - | 52 W/m² | - |
| 1788397672 | 15° C | 88% | 1010.2 hPa | 0 mm | - | 80 W/m² | - |
| 1788397368 | 15° C | 88% | 1009.9 hPa | 0 mm | - | 222 W/m² | - |
| 1788397066 | 14.44° C | 91% | 1010 hPa | 0 mm | - | 297 W/m² | - |
| 1788396761 | 14.44° C | 91% | 1010.1 hPa | 0 mm | - | 130 W/m² | - |
* Rain latest hour (hover to see other rain measurements)
** Current wind speed in m/s (hover to see current wind gust speed)